Regional Weather Roundup
Issued by NWS

Home | Current Version | Previous Version | Graphics & Text | Print | Product List | Glossary On
Versions: 1 2 3 4 5 6 7 8 9 10 11 12 13 14 15 16 17 18 19 20 21 22 23 24 25 26 27 28 29 30 31 32 33 34 35 36 37 38 39 40 41 42 43 44 45 46 47 48 49 50
885
ASUS43 KFSD 271302
RWRSD

WEATHER ROUNDUP FOR SOUTH DAKOTA
NATIONAL WEATHER SERVICE SIOUX FALLS SD
700 AM CST MON FEB 27 2017

NOTE: "FAIR" INDICATES FEW OR NO CLOUDS BELOW 12,000 FEET WITH NO
SIGNIFICANT WEATHER AND/OR OBSTRUCTIONS TO VISIBILITY.


SDZ001>005-009-010-012>017-271400-
NORTHWEST AND NORTH CENTRAL SOUTH DAKOTA

CITY           SKY/WX    TMP DP  RH WIND       PRES   REMARKS
BUFFALO          N/A     20  17  88 SE7       29.56F WCI  11
FAITH            N/A     21  20  96 E10       29.68F WCI  10
MOBRIDGE       CLOUDY    24  19  81 E13       29.74F WCI  12
$$

SDZ012>016-024>037-041>051-057-063-072>074-271400-
SOUTHWEST AND SOUTH CENTRAL SOUTH DAKOTA

CITY           SKY/WX    TMP DP  RH WIND       PRES   REMARKS
RAPID CTY ARPT CLOUDY    16  10  77 S6        29.63F WCI   7
PIERRE         CLOUDY    21  16  81 SE8       29.76F WCI  11
CUSTER         CLOUDY    18   3  52 SW6       29.56S WCI  10
ELLSWORTH AFB  CLEAR     20  11  70 W3        29.61F
PHILIP         CLOUDY    25  15  66 S5        29.71F WCI  19
PINE RIDGE     CLEAR     24  13  62 S18       29.68S WCI  10
SPEARFISH      FAIR      18   9  68 VRB5      29.59F WCI  11
WINNER         FAIR      20  11  68 SE5       29.78F WCI  13
$$

SDZ004>011-016>023-039-040-271400-
NORTHEAST SOUTH DAKOTA

CITY           SKY/WX    TMP DP  RH WIND       PRES   REMARKS
ABERDEEN       CLOUDY    20  17  88 NE5       29.85S WCI  13
WATERTOWN      CLEAR     20  17  88 S6        29.83S WCI  12
BROOKINGS      CLEAR     19  16  88 SE7       29.85S WCI  10
SISSETON         N/A     18  16  92 CALM      29.88S
$$

SDZ017-020-022-023-036>040-048>070-271400-
SOUTHEAST SOUTH DAKOTA

CITY           SKY/WX    TMP DP  RH WIND       PRES   REMARKS
SIOUX FALLS    PTCLDY    23  19  85 S6        29.89F WCI  16
HURON          CLOUDY    20  17  88 S7        29.85R WCI  11
CHAMBERLAIN    CLOUDY    20  16  83 CALM      29.81F
MITCHELL       CLOUDY    23  16  74 S7        29.88R WCI  15
YANKTON        CLOUDY    18  14  86 CALM      29.90F
$$

ABBREVIATIONS USED IN REMARKS
   TC - TEMPERATURE IN CELSIUS
  WCI - WIND CHILL INDEX
   HX - HEAT INDEX
  VSB - VISIBILITY





USA.gov is the U.S. government's official web portal to all federal, state and local government web resources and services.